| time (UTC) | temp F | wind direction | speed knots | gust knots | rain 1hr in | rain 24hr in | rain mn in | humidity % | barometer mb |
| 20260509081531 | 53 | 166 | 0.0 | 2.6 | 0.00 | 0.00 | 0.00 | 67 | 1024.4 |
| 20260509080107 | 54 | 347 | 0.0 | 2.6 | 0.00 | 0.00 | 0.00 | 64 | 1024.3 |
| 20260509074531 | 55 | 349 | 2.6 | 7.8 | 0.00 | 0.00 | 0.00 | 63 | 1024.1 |
| 20260509073031 | 56 | 355 | 2.6 | 7.0 | 0.00 | 0.00 | 0.00 | 62 | 1024.0 |
| 20260509071532 | 56 | 1 | 1.7 | 7.0 | 0.00 | 0.00 | 0.00 | 61 | 1024.1 |
| 20260509070033 | 57 | 9 | 1.7 | 7.0 | 0.00 | 0.00 | 0.00 | 61 | 1024.1 |
| 20260509064530 | 56 | 22 | 1.7 | 7.0 | 0.00 | 0.00 | 0.00 | 61 | 1024.1 |
| 20260509063029 | 56 | 12 | 0.9 | 6.1 | 0.00 | 0.00 | 0.00 | 62 | 1024.2 |
| 20260509061539 | 56 | 342 | 0.9 | 4.3 | 0.00 | 0.00 | 0.00 | 61 | 1024.1 |
| 20260509060032 | 56 | 338 | 0.9 | 4.3 | 0.00 | 0.00 | 0.00 | 60 | 1024.2 |
| 20260509054606 | 57 | 355 | 0.9 | 8.7 | 0.00 | 0.00 | 0.00 | 60 | 1024.0 |
| 20260509053030 | 57 | 5 | 1.7 | 8.7 | 0.00 | 0.00 | 0.00 | 60 | 1023.8 |
| 20260509051530 | 57 | 359 | 1.7 | 6.1 | 0.00 | 0.00 | 0.00 | 59 | 1023.8 |
| 20260509050031 | 57 | 348 | 2.6 | 8.7 | 0.00 | 0.00 | 0.00 | 58 | 1023.6 |
| 20260509044528 | 57 | 346 | 3.5 | 7.8 | 0.00 | 0.00 | 0.00 | 58 | 1023.5 |
| 20260509043032 | 57 | 347 | 2.6 | 6.1 | 0.00 | 0.00 | 0.00 | 57 | 1023.4 |
| 20260509041537 | 58 | 3 | 2.6 | 10.4 | 0.00 | 0.00 | 0.00 | 57 | 1023.4 |
| 20260509040026 | 58 | 5 | 2.6 | 7.8 | 0.00 | 0.00 | 0.00 | 57 | 1023.3 |
| 20260509034605 | 57 | 21 | 0.9 | 5.2 | 0.00 | 0.00 | 0.00 | 57 | 1023.3 |
| 20260509033032 | 58 | 35 | 0.0 | 4.3 | 0.00 | 0.00 | 0.00 | 54 | 1023.1 |
| 20260509031530 | 60 | 27 | 0.0 | 1.7 | 0.00 | 0.00 | 0.00 | 51 | 1022.9 |
| 20260509024538 | 63 | 15 | 1.7 | 9.6 | 0.00 | 0.00 | 0.00 | 46 | 1022.2 |
| 20260509023031 | 64 | 24 | 1.7 | 7.0 | 0.00 | 0.00 | 0.00 | 44 | 1022.0 |
| 20260509021528 | 66 | 42 | 1.7 | 6.1 | 0.00 | 0.00 | 0.00 | 42 | 1021.9 |
| 20260509020136 | 67 | 57 | 0.9 | 4.3 | 0.00 | 0.00 | 0.00 | 41 | 1022.0 |
| 20260509014531 | 67 | 58 | 0.9 | 4.3 | 0.00 | 0.00 | 0.00 | 39 | 1021.8 |
| 20260509013030 | 67 | 35 | 1.7 | 7.8 | 0.00 | 0.00 | 0.00 | 39 | 1021.4 |
| 20260509010030 | 67 | 38 | 3.5 | 13.9 | 0.00 | 0.00 | 0.00 | 38 | 1020.8 |
| 20260509004532 | 67 | 44 | 3.5 | 9.6 | 0.00 | 0.00 | 0.00 | 37 | 1021.0 |
| 20260509003030 | 68 | 44 | 2.6 | 8.7 | 0.00 | 0.00 | 0.00 | 35 | 1021.2 |
| 20260509000108 | 68 | 59 | 3.5 | 8.7 | 0.00 | 0.00 | 0.00 | 33 | 1021.2 |
| 20260508234529 | 68 | 59 | 2.6 | 7.8 | 0.00 | 0.00 | 0.00 | 33 | 1021.1 |
| 20260508233031 | 68 | 52 | 2.6 | 9.6 | 0.00 | 0.00 | 0.00 | 34 | 1021.2 |
| 20260508231531 | 68 | 50 | 2.6 | 8.7 | 0.00 | 0.00 | 0.00 | 33 | 1021.2 |
| 20260508230029 | 69 | 50 | 2.6 | 6.1 | 0.00 | 0.00 | 0.00 | 33 | 1021.2 |
| 20260508224532 | 70 | 54 | 1.7 | 6.1 | 0.00 | 0.00 | 0.00 | 33 | 1021.3 |
| 20260508214530 | 67 | 59 | 1.7 | 7.0 | 0.00 | 0.00 | 0.00 | 35 | 1021.6 |
| 20260508213033 | 66 | 48 | 2.6 | 7.0 | 0.00 | 0.00 | 0.00 | 36 | 1021.6 |
| 20260508211530 | 67 | 45 | 2.6 | 7.0 | 0.00 | 0.00 | 0.00 | 36 | 1021.4 |
| 20260508210107 | 66 | 38 | 2.6 | 7.8 | 0.00 | 0.00 | 0.00 | 37 | 1021.2 |
| 20260508204607 | 67 | 51 | 1.7 | 6.1 | 0.00 | 0.00 | 0.00 | 38 | 1021.3 |
| 20260508203028 | 66 | 57 | 2.6 | 7.0 | 0.00 | 0.00 | 0.00 | 39 | 1021.2 |
| 20260508201532 | 65 | 59 | 2.6 | 6.1 | 0.00 | 0.00 | 0.00 | 40 | 1021.2 |
| 20260508194529 | 64 | 54 | 1.7 | 6.1 | 0.00 | 0.00 | 0.00 | 41 | 1021.3 |
| 20260508193032 | 61 | 40 | 1.7 | 6.1 | 0.00 | 0.00 | 0.00 | 44 | 1021.4 |
| 20260508191529 | 60 | 51 | 1.7 | 7.0 | 0.00 | 0.00 | 0.00 | 45 | 1021.4 |
| 20260508190030 | 59 | 34 | 2.6 | 7.0 | 0.00 | 0.00 | 0.00 | 46 | 1021.5 |
| 20260508184530 | 57 | 42 | 1.7 | 6.1 | 0.00 | 0.00 | 0.00 | 48 | 1021.5 |
| 20260508180110 | 58 | 48 | 2.6 | 7.0 | 0.00 | 0.00 | 0.00 | 48 | 1021.0 |
| 20260508174541 | 60 | 42 | 1.7 | 6.1 | 0.00 | 0.00 | 0.00 | 49 | 1020.7 |
| 20260508173030 | 60 | 42 | 1.7 | 7.0 | 0.00 | 0.00 | 0.00 | 51 | 1020.6 |
| 20260508170030 | 61 | 40 | 1.7 | 5.2 | 0.00 | 0.00 | 0.00 | 52 | 1020.6 |
| 20260508163030 | 60 | 49 | 1.7 | 6.1 | 0.00 | 0.00 | 0.00 | 56 | 1020.7 |
| 20260508161529 | 58 | 44 | 1.7 | 5.2 | 0.00 | 0.00 | 0.00 | 58 | 1020.8 |
| 20260508154532 | 56 | 32 | 0.9 | 3.5 | 0.00 | 0.00 | 0.00 | 60 | 1020.8 |
| 20260508153031 | 54 | 16 | 0.9 | 3.5 | 0.00 | 0.00 | 0.00 | 63 | 1020.7 |
| 20260508151605 | 52 | 9 | 0.9 | 3.5 | 0.00 | 0.00 | 0.00 | 65 | 1020.6 |
| 20260508150105 | 52 | 4 | 0.0 | 3.5 | 0.00 | 0.00 | 0.00 | 65 | 1020.4 |
| 20260508143027 | 48 | 312 | 0.0 | 2.6 | 0.00 | 0.00 | 0.00 | 67 | 1020.0 |
| 20260508141530 | 47 | 250 | 0.0 | 3.5 | 0.00 | 0.00 | 0.00 | 64 | 1020.0 |
| 20260508134531 | 44 | 240 | 1.7 | 5.2 | 0.00 | 0.00 | 0.00 | 64 | 1019.6 |
| 20260508130031 | 43 | 239 | 1.7 | 4.3 | 0.00 | 0.00 | 0.00 | 64 | 1019.2 |
| 20260508121530 | 44 | 236 | 0.9 | 3.5 | 0.00 | 0.00 | 0.00 | 63 | 1019.1 |
| 20260508114531 | 45 | 277 | 1.7 | 5.2 | 0.00 | 0.00 | 0.00 | 60 | 1019.1 |
| 20260508113031 | 43 | 277 | 2.6 | 4.3 | 0.00 | 0.00 | 0.00 | 63 | 1018.8 |
| 20260508111532 | 43 | 244 | 1.7 | 6.1 | 0.00 | 0.00 | 0.00 | 63 | 1018.8 |
| 20260508110030 | 43 | 241 | 2.6 | 5.2 | 0.00 | 0.00 | 0.00 | 63 | 1018.8 |
| 20260508104529 | 43 | 242 | 1.7 | 4.3 | 0.00 | 0.00 | 0.00 | 61 | 1018.8 |
| 20260508103030 | 44 | 231 | 2.6 | 5.2 | 0.00 | 0.00 | 0.00 | 59 | 1018.8 |
| 20260508101541 | 45 | 233 | 2.6 | 6.1 | 0.00 | 0.00 | 0.00 | 57 | 1018.8 |
| 20260508100029 | 46 | 238 | 1.7 | 4.3 | 0.00 | 0.00 | 0.00 | 57 | 1018.8 |
| 20260508094532 | 45 | 230 | 1.7 | 4.3 | 0.00 | 0.00 | 0.00 | 57 | 1018.8 |
| 20260508090145 | 45 | 242 | 0.9 | 3.5 | 0.00 | 0.00 | 0.00 | 56 | 1018.6 |
| 20260508084532 | 45 | 238 | 1.7 | 6.1 | 0.00 | 0.00 | 0.00 | 55 | 1018.6 |
| 20260508083032 | 45 | 242 | 1.7 | 5.2 | 0.00 | 0.00 | 0.00 | 55 | 1018.7 |